Portada
METAR-TAF:

METAR-TAF

Aeroports :

Albury, Austràlia

latitud: 36-04-06S, longitud: 146-57-30E, altitud: 164 m

Observació

L'informe es va fer fa 20 minuts, a les 16:00 UTC
Vent 3 kt del Nord
Temperatura 13°C
Humitat 82%
Pressió 1024 hPa
Visibilitat 10 km o més

METAR: YMAY 191600Z AUTO 35003KT 9999 // NCD 13/10 Q1024

Hora: 02:20 (16:20 UTC)


TAF: manca

Observacions i pronòstics meteorològics de més de 4000 aeroports (METAR i TAF).

Les estacions disponibles són els punts grocs i vermells al mapa.

Posi el ratolí al punt desitjat per veure el nom de l'estació.

Feu clic per veure les observacions i els pronòstics meteorològics.

Per canviar el mapa: feu clic els botons verds amb una creu de color negre per apropar; al botó verd amb un guió per allunyar la imatge; o en les fletxes verdes per a mapes adjacents.


METAR-TAF: